Hourly Data Report for November 08, 2020

OTTAWA INTL A
ONTARIO
Current Station Operator: NAVCAN

45°19'00.000" N
75°40'00.000" W
114.90 m
6106001
71628
YOW

Download Data

Hourly Data (November 2020)
Hourly Data Report for November 8, 2020
TIME Temp Definition
°C
Dew Point Definition
°C
Rel Hum Definition
%
Wind Dir Definition
10's deg

Wind Spd Definition
km/h
Visibility Definition
km
Stn Press Definition
kPa
Hmdx Definition


Wind Chill Definition


Weather Definition


00:00 11.6 8.1 79 19 9 24.1 100.88     LegendNANA
01:00 11.0 7.9 81 20 10 24.1 100.90     Clear
02:00 10.1 7.8 85 20 8 24.1 100.95     LegendNANA
03:00 9.5 7.3 86 19 10 24.1 101.01     LegendNANA
04:00 8.4 6.7 89 19 12 24.1 101.04     Clear
05:00 7.3 6.0 91 20 12 24.1 101.06     LegendNANA
06:00 6.7 5.6 93 20 11 24.1 101.12     LegendNANA
07:00 6.6 5.7 93 20 13 24.1 101.16     Mainly Clear
08:00 7.9 6.6 91 21 10 24.1 101.23     LegendNANA
09:00 10.8 7.9 82 21 13 24.1 101.25     LegendNANA
10:00 13.9 8.2 68 20 15 24.1 101.27     Mainly Clear
11:00 16.9 8.6 58 22 14 24.1 101.25     LegendNANA
12:00 18.7 8.3 50 21 13 24.1 101.20     LegendNANA
13:00 20.2 8.4 46 22 18 24.1 101.16     Clear
14:00 21.3 8.6 44 21 17 24.1 101.13     LegendNANA
15:00 21.1 8.0 42 22 18 24.1 101.14     LegendNANA
16:00 19.1 8.2 49 20 13 24.1 101.15     Clear
17:00 16.8 8.2 56 20 13 24.1 101.17     LegendNANA
18:00 14.9 7.6 61 20 9 24.1 101.20     LegendNANA
19:00 13.2 7.5 68 20 13 24.1 101.19     Clear
20:00 11.6 7.2 74 19 11 24.1 101.20     LegendNANA
21:00 10.7 7.2 79 20 10 24.1 101.21     LegendNANA
22:00 10.2 7.0 80 20 9 24.1 101.22     Clear
23:00 8.8 6.6 86 22 10 24.1 101.18     LegendNANA

Notes on Data Quality.

Legend

  • E = Estimated
  • M = Missing
  • NA = Not Available*
  • [empty] = Indicates an unobserved value
Date modified: